Temperature
7 8 8 8 8 9 9 10 10 10 10 11 11 11 11 11 11 11 11 11 11 11 11 11 11 11 11 11 11 10 10 10 10 10 10 10 10 10 10 10 10 9 10
7 7 7 7 7 8 8 9 9 10 10 10 10 10 11 10 11 10 10 10 10 10 10 11 11 11 11 10 10 10 10 10 10 10 10 9 9 9 9 9 9 9 9
5 5 6 6 6 7 7 8 8 9 9 9 10 10 10 10 10 10 10 10 10 10 10 10 10 10 10 10 10 10 10 10 10 10 10 9 9 9 9 9 9 9 9
5 5 5 5 5 6 6 7 7 8 8 9 9 9 9 9 10 10 10 10 10 10 10 10 10 10 10 10 10 10 10 10 10 9 9 10 10 9 9 8 8 8 9
4 4 4 4 4 5 5 6 6 7 7 8 8 8 9 9 9 9 9 9 9 9 10 10 10 10 10 10 10 10 10 9 9 9 9 9 9 9 9 8 8 8 8
3 3 3 3 4 4 5 5 6 6 7 7 7 8 8 8 9 9 9 9 9 9 9 9 9 9 9 10 10 10 9 9 9 9 9 9 9 9 9 8 8 8 8
2 2 2 3 3 3 4 4 5 5 6 7 7 7 7 8 8 8 8 8 9 9 9 9 9 9 9 9 9 9 9 9 9 9 9 9 9 9 9 8 8 7 8
1 1 1 1 2 2 3 3 4 4 5 6 6 7 7 7 7 7 8 8 8 8 9 9 9 9 9 9 9 9 9 8 8 8 8 8 8 8 8 8 8 7 7
-0 0 0 1 1 1 2 2 3 4 4 5 5 6 6 7 7 7 7 7 8 8 8 8 8 8 8 8 8 8 8 8 8 8 8 8 8 8 8 8 8 7 7
-1 -1 -0 -0 0 0 1 2 2 3 3 4 5 5 6 6 6 6 7 7 7 7 8 8 8 8 8 8 8 8 8 8 8 8 8 8 8 8 7 7 7 7 7
-2 -2 -1 -1 -1 -0 0 1 1 2 3 3 4 4 5 5 6 6 6 7 7 7 7 7 7 7 7 7 7 7 8 7 7 7 7 7 7 7 7 7 7 7 7
-3 -2 -2 -2 -1 -1 -0 -0 0 1 2 2 3 4 4 4 5 5 6 6 6 6 7 7 7 7 7 7 7 7 7 7 7 7 7 7 7 7 7 7 7 7 7
-3 -3 -3 -3 -2 -2 -1 -1 -0 0 1 1 2 3 3 4 4 4 5 5 5 6 6 6 6 6 6 6 7 7 7 7 7 7 7 7 7 7 7 6 6 6 6
-4 -4 -4 -4 -3 -3 -2 -2 -1 -1 -0 1 1 2 2 3 3 4 4 4 5 5 5 6 6 6 6 6 6 6 6 6 6 6 6 6 6 6 6 6 6 6 6
-5 -5 -5 -5 -4 -4 -3 -3 -2 -1 -1 -0 0 1 2 2 3 3 3 4 4 4 5 5 5 5 5 5 6 6 6 5 6 6 6 6 6 6 6 5 5 5 5
-6 -6 -5 -5 -5 -4 -4 -3 -3 -2 -2 -1 -0 0 1 1 2 2 3 3 3 4 4 4 4 5 5 5 5 5 5 5 5 5 5 5 5 5 5 5 5 5 5
-7 -6 -6 -6 -5 -5 -4 -4 -4 -3 -2 -2 -1 -1 -0 1 1 2 2 2 3 3 3 3 4 4 4 4 4 4 4 5 5 5 5 5 5 5 5 5 4 4 4
-7 -7 -6 -6 -6 -5 -5 -5 -4 -4 -3 -3 -2 -1 -1 -0 0 1 1 2 2 2 3 3 3 3 3 3 4 4 4 4 4 4 4 4 4 4 4 4 4 4 4
-7 -7 -7 -6 -6 -6 -6 -5 -5 -4 -4 -3 -3 -2 -2 -1 -0 0 1 1 1 2 2 2 2 2 3 3 3 3 3 3 3 3 3 4 4 4 4 3 3 3 3
-7 -7 -7 -7 -6 -6 -6 -6 -5 -5 -4 -4 -3 -3 -2 -2 -1 -1 -0 0 0 1 1 1 1 2 2 2 2 2 2 2 2 3 3 3 3 3 3 3 3 3 3
-8 -7 -7 -7 -7 -6 -6 -6 -6 -6 -5 -5 -4 -3 -3 -2 -2 -1 -1 -1 -0 -0 0 1 1 1 1 1 1 1 1 1 2 2 2 2 2 2 2 2 2 2 2
-8 -8 -8 -7 -7 -7 -7 -7 -6 -6 -6 -5 -5 -4 -3 -3 -2 -2 -2 -1 -1 -1 -1 -0 -0 0 0 0 1 1 1 1 1 1 1 1 1 1 1 1 1 1 1
-8 -8 -8 -8 -7 -7 -7 -7 -7 -6 -6 -6 -5 -5 -4 -4 -3 -3 -2 -2 -2 -2 -2 -1 -1 -1 -1 -0 -0 -0 0 0 0 0 1 1 1 1 0 1 0 0 0
-9 -8 -8 -8 -8 -8 -8 -8 -7 -7 -7 -6 -6 -5 -5 -4 -4 -4 -3 -3 -3 -3 -2 -2 -2 -1 -1 -1 -1 -1 -0 -0 -0 -0 -0 -0 -0 -0 -0 -0 -0 -0 -0
-9 -9 -9 -9 -8 -8 -8 -8 -8 -7 -7 -7 -6 -6 -5 -5 -5 -4 -4 -4 -4 -3 -3 -3 -2 -2 -2 -2 -2 -1 -1 -1 -1 -1 -1 -1 -1 -1 -1 -1 -1 -1 -1
-9 -9 -9 -9 -9 -8 -8 -8 -8 -8 -7 -7 -7 -7 -6 -6 -6 -5 -5 -5 -4 -4 -4 -3 -3 -3 -3 -2 -2 -2 -2 -2 -2 -2 -2 -2 -2 -2 -2 -2 -2 -2 -2
Wind_Speed
3 4 4 4 3 2 2 1 1 2 3 2 2 3 3 3 3 4 6 7 7 8 7 5 5 5 4 4 4 4 5 4 4 3 2 1 1 2 2 3 4 4 5
4 4 4 4 4 4 3 2 1 1 2 3 3 2 3 3 3 3 4 6 7 7 7 6 5 5 4 4 4 4 3 3 4 3 3 2 0 1 1 2 2 2 4
3 3 3 3 3 3 3 3 2 0 1 1 2 2 2 2 2 3 3 4 6 7 6 7 6 5 5 5 5 5 5 4 3 2 3 3 3 1 1 2 2 2 2
4 3 4 4 4 3 3 3 3 2 1 1 3 4 3 3 3 4 4 4 5 6 6 6 6 5 4 5 5 5 4 5 4 2 1 1 3 3 1 1 2 3 2
5 5 5 4 4 4 3 3 3 3 2 0 2 3 3 2 2 3 5 5 4 5 6 6 6 5 4 5 5 5 5 4 4 4 2 1 1 2 3 2 2 1 2
7 6 6 5 5 5 4 3 3 3 3 1 1 2 2 2 3 4 5 5 3 4 5 6 5 5 5 5 5 5 6 4 4 3 3 3 3 3 2 3 3 2 2
6 6 7 6 6 6 5 4 4 4 3 3 1 1 2 3 3 4 5 5 4 3 4 4 5 4 4 5 5 5 5 5 5 4 3 3 3 2 2 2 2 1 1
6 6 6 5 5 6 5 5 4 4 4 3 3 1 2 2 2 2 2 4 4 4 5 5 5 5 6 6 5 4 4 4 5 5 4 2 2 2 2 3 3 1 1
9 7 6 6 6 6 5 5 5 5 5 4 4 2 1 2 2 2 1 2 2 3 5 5 5 5 5 6 6 4 5 5 5 5 4 3 2 2 2 3 4 4 3
9 9 7 6 6 6 6 5 5 5 5 5 5 3 2 1 1 2 2 2 2 3 5 5 5 5 5 6 5 5 5 5 5 4 5 3 2 2 2 3 2 2 3
9 8 8 7 6 6 6 6 5 6 5 5 5 5 3 2 1 1 1 1 2 3 4 5 5 5 5 5 5 5 6 6 5 5 5 5 4 3 3 3 2 2 2
9 8 8 9 8 7 6 6 6 6 6 6 5 5 4 3 2 1 1 1 2 2 3 4 5 5 5 5 5 6 6 7 7 6 6 6 5 4 3 3 3 3 2
10 9 9 9 9 8 7 7 7 7 6 6 5 5 4 3 2 1 1 1 2 2 2 3 4 5 5 5 5 5 5 6 7 7 7 6 6 5 4 4 4 3 2
9 9 9 9 9 9 8 8 7 7 7 6 5 5 5 5 3 2 1 1 1 2 2 3 3 4 4 5 5 5 5 5 5 6 6 6 7 7 6 5 5 4 3
11 11 10 9 10 9 9 8 8 7 7 6 5 5 5 5 4 2 1 1 1 1 2 2 3 3 3 4 5 5 5 5 5 5 5 5 6 7 6 5 5 5 4
12 11 11 11 10 10 9 9 8 8 7 6 5 5 5 4 4 3 1 1 1 1 2 2 3 3 3 4 5 5 5 5 5 5 4 4 5 6 6 6 6 7 6
12 12 10 10 10 10 9 8 8 8 7 6 6 5 5 4 4 3 2 1 1 1 1 2 3 3 3 4 5 5 4 4 4 5 5 4 4 5 4 5 5 5 6
12 11 10 10 10 9 8 8 7 7 7 6 6 6 5 5 4 2 1 1 1 1 2 2 3 3 3 4 5 5 3 3 4 4 5 5 5 4 4 4 3 2 3
10 10 9 9 9 9 8 8 7 7 6 7 7 7 6 5 5 3 2 1 1 1 2 2 2 3 3 5 5 5 3 3 3 3 4 5 5 6 6 5 4 3 1
9 9 9 9 9 9 8 7 7 7 8 8 8 7 6 5 5 4 2 2 2 2 2 1 2 2 3 4 5 5 3 4 3 3 4 5 5 6 6 5 5 4 3
10 10 9 9 9 9 8 8 8 8 9 8 8 7 6 5 5 3 2 1 2 1 1 1 1 1 2 3 4 6 4 4 4 3 3 3 6 6 7 6 5 5 4
10 10 9 9 9 9 8 9 9 9 9 8 7 7 6 5 4 2 2 1 1 2 1 1 1 1 1 2 3 4 4 4 4 3 3 3 6 6 6 5 5 6 4
9 9 9 9 9 9 8 9 10 9 9 8 8 7 6 5 4 2 2 1 1 2 2 1 1 1 1 1 2 3 3 3 2 2 4 4 5 5 4 5 5 5 3
9 9 9 9 10 10 9 9 10 9 9 9 8 7 6 5 3 2 2 1 1 1 1 2 1 1 1 1 1 1 1 1 2 2 3 4 4 3 3 4 3 3 3
9 8 8 9 10 10 9 10 9 9 8 8 7 7 6 4 3 3 2 2 2 2 2 2 2 2 2 2 2 2 2 1 2 2 2 2 2 2 2 2 2 2 2
8 8 9 9 9 9 9 9 9 8 8 8 7 6 5 4 3 3 3 4 3 4 4 3 3 2 2 3 3 3 3 2 4 3 3 3 3 4 4 3 3 2 3
Wind_Direction
37 39 37 35 31 52 43 82 129 145 140 144 153 160 164 157 146 147 157 158 157 158 149 149 147 145 150 157 152 142 135 137 131 112 96 43 64 104 122 126 120 119 125
34 36 31 30 26 27 21 15 73 162 162 173 179 181 166 165 161 159 157 161 160 161 160 151 152 148 149 154 156 145 140 151 154 139 137 140 121 303 157 134 136 137 136
34 28 24 22 20 26 18 0 357 12 166 159 146 131 116 130 151 164 167 167 168 166 163 158 152 155 157 166 167 159 152 161 175 166 152 154 185 172 199 190 169 159 145
20 23 18 11 8 7 13 6 1 4 62 119 155 160 168 174 189 179 175 176 176 167 160 158 155 159 161 165 170 164 160 158 172 191 194 144 134 137 156 241 207 176 170
15 16 11 1 1 4 13 9 358 5 6 169 169 177 184 179 167 170 172 178 179 170 163 163 161 163 164 164 165 159 166 169 173 173 169 151 100 121 147 191 211 208 212
10 9 11 8 5 5 11 11 7 358 354 329 201 175 185 183 170 176 182 182 178 174 168 168 167 164 163 165 166 166 172 177 170 166 164 158 157 176 167 177 185 198 227
13 9 9 5 360 358 5 6 4 356 345 339 302 213 190 191 192 191 187 179 176 175 181 172 171 168 167 167 164 168 175 176 173 173 178 178 175 161 154 154 173 177 220
13 13 8 360 354 354 359 3 358 347 339 333 316 271 212 193 201 205 193 184 184 182 180 182 178 175 173 173 169 174 179 177 175 174 171 172 178 166 160 161 159 169 244
7 8 8 2 356 354 353 353 354 352 347 337 323 298 252 215 207 201 188 176 174 181 181 185 184 181 177 176 174 182 184 180 180 178 177 171 175 170 166 157 160 165 196
5 4 2 2 359 355 353 358 1 352 347 349 342 327 298 263 220 191 187 182 178 180 180 184 181 181 182 180 178 180 182 178 181 178 177 178 174 170 169 170 180 174 180
3 1 358 358 360 359 1 1 358 357 353 348 347 344 334 325 308 192 182 190 186 181 187 184 180 184 190 187 184 183 182 181 180 178 182 187 175 173 177 171 173 185 177
0 359 0 2 1 359 359 359 356 355 352 348 348 342 339 339 342 324 227 197 199 185 184 182 180 185 191 189 186 187 185 184 186 188 187 190 181 179 179 179 187 190 185
358 360 3 0 356 354 356 356 354 350 350 350 346 346 344 339 323 307 303 245 217 191 185 189 186 189 191 191 192 191 190 191 192 190 190 188 180 189 189 187 191 191 190
360 1 359 355 352 350 353 353 349 349 348 347 343 341 337 332 317 298 266 260 228 192 188 200 198 197 188 189 193 191 189 191 195 194 191 189 189 193 189 192 193 188 182
359 358 353 351 349 348 350 349 347 345 345 340 335 331 329 331 326 317 302 279 252 226 200 196 198 196 191 193 189 190 190 193 192 191 191 192 192 196 194 196 192 186 187
351 350 350 350 347 345 344 343 341 339 338 333 328 327 328 329 324 315 313 284 259 237 206 192 189 188 203 195 186 186 190 192 189 189 189 188 189 194 197 201 196 192 192
345 344 345 344 342 340 337 336 334 334 336 333 329 326 324 321 313 308 320 288 245 256 237 208 193 196 199 189 186 188 190 192 193 190 188 191 191 190 187 188 189 199 209
342 341 340 339 337 336 338 336 334 336 337 335 333 329 324 318 311 301 293 298 289 233 245 232 206 198 202 191 191 188 190 193 194 193 190 188 187 188 177 171 174 195 212
336 336 336 335 335 338 340 339 340 342 342 339 333 325 321 314 307 294 284 293 288 270 251 244 214 203 206 197 195 189 186 193 198 193 188 184 185 185 171 166 175 184 215
338 338 338 340 342 342 343 344 343 344 342 334 326 320 315 306 299 284 286 294 282 274 269 267 225 204 208 204 197 193 190 196 199 193 190 191 186 182 177 178 179 190 201
338 340 341 343 343 343 345 346 345 341 333 327 326 325 319 310 299 282 282 274 277 270 262 258 238 204 207 201 199 203 198 199 198 197 191 190 186 185 187 187 189 196 185
338 340 340 339 340 345 347 345 340 333 330 329 329 331 328 318 311 286 273 259 247 248 245 242 227 207 200 195 210 213 213 207 199 201 193 186 183 188 190 191 185 176 167
333 335 335 334 340 345 347 340 333 334 334 334 334 333 335 328 315 302 280 255 234 232 245 238 223 202 186 188 209 222 228 222 204 194 185 182 182 182 184 184 174 165 165
330 332 334 335 337 340 342 336 332 335 337 335 334 335 337 335 336 334 324 304 273 249 254 258 255 251 221 204 195 203 212 207 175 164 166 164 169 172 173 168 166 168 173
326 330 330 329 329 333 335 336 336 337 336 334 334 335 336 336 341 349 346 327 307 274 263 257 249 232 244 249 245 233 226 211 183 153 140 149 160 161 161 162 156 154 154
320 324 326 326 325 328 331 334 337 337 335 334 335 337 341 342 344 348 358 3 342 339 323 303 276 268 261 259 228 225 234 223 177 156 170 182 182 184 184 182 181 179 181
Height
1482 1483 1484 1485 1486 1488 1489 1491 1494 1496 1498 1501 1503 1506 1509 1512 1515 1518 1521 1523 1526 1529 1531 1533 1536 1538 1541 1543 1546 1548 1551 1553 1555 1558 1560 1562 1563 1564 1565 1566 1567 1568 1568
1481 1482 1483 1483 1484 1486 1487 1489 1491 1494 1496 1498 1501 1504 1506 1509 1512 1515 1518 1521 1523 1526 1528 1531 1533 1535 1538 1541 1543 1546 1548 1550 1553 1555 1557 1559 1562 1562 1563 1564 1565 1566 1566
1481 1482 1482 1483 1483 1484 1485 1487 1489 1491 1494 1496 1498 1501 1504 1506 1510 1512 1515 1518 1520 1523 1525 1528 1530 1533 1535 1538 1540 1543 1545 1547 1550 1552 1555 1556 1558 1560 1561 1562 1563 1564 1564
1481 1482 1482 1482 1482 1483 1484 1485 1487 1489 1491 1493 1495 1497 1499 1502 1505 1508 1511 1514 1517 1520 1522 1525 1527 1530 1532 1535 1537 1540 1542 1545 1547 1550 1552 1554 1555 1557 1558 1560 1560 1561 1562
1481 1481 1481 1482 1482 1482 1483 1484 1485 1486 1488 1491 1493 1495 1497 1499 1502 1505 1508 1511 1514 1516 1519 1522 1524 1527 1529 1532 1534 1537 1539 1541 1544 1546 1548 1550 1552 1553 1555 1556 1558 1559 1560
1481 1481 1481 1481 1481 1481 1481 1482 1483 1484 1486 1488 1490 1492 1494 1496 1499 1501 1504 1507 1510 1513 1515 1518 1521 1524 1526 1529 1531 1533 1536 1538 1541 1543 1545 1547 1548 1550 1552 1553 1554 1556 1557
1481 1481 1480 1480 1479 1479 1480 1480 1481 1482 1483 1485 1487 1489 1491 1493 1495 1498 1500 1502 1505 1508 1511 1515 1517 1520 1523 1525 1528 1530 1532 1535 1537 1539 1542 1544 1545 1548 1549 1551 1552 1553 1554
1481 1481 1480 1479 1479 1478 1478 1478 1479 1480 1481 1482 1484 1486 1488 1490 1492 1494 1496 1499 1501 1504 1508 1511 1514 1516 1519 1522 1524 1526 1529 1531 1533 1536 1538 1540 1542 1544 1546 1548 1549 1550 1551
1482 1481 1480 1479 1478 1477 1477 1477 1477 1478 1479 1480 1481 1483 1485 1487 1489 1491 1493 1495 1498 1501 1504 1506 1510 1512 1515 1518 1520 1522 1525 1527 1530 1532 1534 1536 1538 1540 1542 1544 1546 1547 1547
1482 1481 1480 1478 1477 1476 1476 1476 1476 1476 1477 1477 1479 1480 1482 1483 1486 1487 1489 1491 1494 1497 1500 1502 1505 1508 1511 1513 1516 1518 1521 1523 1525 1528 1530 1532 1534 1536 1538 1540 1542 1543 1544
1483 1481 1480 1478 1477 1475 1474 1473 1474 1474 1474 1475 1476 1477 1478 1480 1482 1484 1486 1488 1490 1493 1495 1498 1501 1503 1506 1509 1511 1514 1516 1519 1521 1524 1526 1528 1530 1532 1534 1536 1538 1539 1541
1484 1482 1480 1478 1476 1474 1473 1472 1472 1472 1472 1472 1473 1474 1476 1477 1478 1480 1483 1485 1487 1489 1492 1494 1497 1499 1501 1504 1507 1509 1512 1515 1517 1519 1522 1524 1526 1528 1530 1531 1533 1535 1536
1485 1482 1480 1477 1475 1474 1472 1471 1470 1470 1469 1470 1470 1471 1473 1474 1475 1477 1479 1481 1483 1485 1488 1490 1492 1495 1497 1500 1502 1505 1507 1510 1513 1515 1517 1519 1521 1523 1525 1527 1528 1530 1531
1486 1483 1480 1478 1476 1474 1472 1470 1469 1469 1468 1467 1468 1468 1469 1471 1472 1474 1476 1478 1480 1481 1483 1486 1488 1491 1493 1496 1498 1501 1503 1506 1508 1510 1512 1514 1516 1518 1520 1522 1523 1525 1526
1486 1483 1481 1478 1475 1473 1471 1469 1468 1467 1466 1466 1465 1466 1467 1468 1469 1470 1472 1474 1476 1477 1479 1482 1484 1486 1489 1491 1493 1496 1499 1501 1504 1506 1508 1510 1512 1513 1515 1517 1518 1520 1521
1487 1484 1481 1478 1475 1472 1470 1468 1466 1465 1464 1464 1463 1463 1464 1465 1466 1467 1469 1470 1472 1473 1475 1477 1480 1482 1484 1486 1489 1492 1494 1496 1498 1501 1503 1505 1507 1509 1511 1512 1514 1516 1517
1488 1484 1481 1478 1475 1472 1470 1467 1465 1464 1462 1461 1461 1461 1461 1461 1462 1464 1465 1466 1468 1469 1471 1473 1475 1477 1480 1482 1484 1487 1489 1491 1493 1496 1498 1500 1502 1504 1506 1507 1509 1510 1512
1487 1484 1480 1477 1474 1471 1469 1466 1464 1462 1460 1459 1458 1458 1458 1458 1459 1460 1461 1463 1464 1466 1467 1469 1471 1473 1475 1478 1480 1482 1485 1487 1489 1491 1493 1495 1497 1499 1501 1503 1504 1505 1507
1488 1484 1480 1477 1473 1470 1467 1465 1462 1460 1458 1456 1455 1455 1455 1455 1455 1456 1457 1459 1460 1462 1463 1465 1467 1468 1471 1473 1475 1478 1480 1482 1484 1486 1489 1491 1492 1495 1496 1498 1499 1500 1502
1487 1483 1479 1476 1472 1469 1466 1463 1460 1458 1456 1454 1453 1452 1452 1452 1452 1453 1454 1456 1457 1458 1459 1461 1463 1464 1466 1469 1471 1473 1475 1477 1479 1481 1484 1486 1488 1490 1491 1493 1494 1495 1497
1485 1482 1478 1475 1471 1468 1465 1462 1459 1456 1454 1452 1450 1449 1449 1449 1449 1450 1451 1452 1454 1455 1456 1457 1459 1461 1463 1465 1467 1469 1471 1473 1475 1476 1478 1481 1483 1485 1487 1488 1490 1491 1493
1484 1480 1477 1473 1470 1467 1464 1460 1458 1455 1453 1450 1448 1446 1446 1446 1446 1447 1448 1449 1450 1451 1452 1453 1455 1457 1459 1461 1463 1465 1467 1469 1470 1472 1474 1476 1478 1480 1482 1484 1485 1487 1488
1483 1480 1476 1472 1469 1466 1463 1459 1457 1454 1451 1448 1445 1444 1443 1443 1443 1444 1444 1446 1447 1448 1449 1450 1451 1453 1455 1457 1459 1461 1463 1465 1466 1468 1470 1472 1474 1476 1477 1479 1480 1482 1483
1481 1478 1475 1471 1468 1465 1462 1459 1456 1453 1449 1446 1444 1442 1441 1441 1441 1441 1442 1443 1443 1444 1446 1447 1448 1449 1451 1453 1455 1457 1459 1460 1462 1464 1466 1468 1470 1471 1473 1474 1476 1477 1478
1480 1477 1473 1470 1467 1464 1461 1458 1454 1452 1448 1445 1443 1441 1439 1439 1438 1438 1439 1440 1441 1442 1443 1444 1445 1446 1447 1449 1452 1453 1455 1456 1458 1460 1461 1463 1465 1466 1468 1469 1471 1472 1474
1478 1475 1472 1469 1466 1463 1460 1457 1454 1451 1448 1444 1442 1440 1438 1437 1437 1437 1437 1438 1439 1439 1440 1441 1442 1443 1445 1446 1448 1449 1451 1453 1454 1456 1457 1459 1460 1462 1463 1465 1466 1468 1469